| time (UTC) | temp F | wind direction | speed knots | gust knots | rain 1hr in | rain 24hr in | rain mn in | humidity % | barometer mb |
| 20260506031557 | 44 | 54 | 0.9 | 4.3 | 0.00 | 0.00 | 0.00 | 81 | 1011.6 |
| 20260506031055 | 44 | 59 | 1.7 | 4.3 | 0.00 | 0.00 | 0.00 | 81 | 1011.7 |
| 20260506030553 | 44 | 55 | 1.7 | 5.2 | 0.00 | 0.00 | 0.00 | 80 | 1011.7 |
| 20260506030052 | 44 | 61 | 1.7 | 7.8 | 0.00 | 0.00 | 0.00 | 80 | 1011.8 |
| 20260506025551 | 44 | 51 | 2.6 | 7.8 | 0.00 | 0.00 | 0.00 | 80 | 1011.7 |
| 20260506025050 | 44 | 37 | 2.6 | 5.2 | 0.00 | 0.00 | 0.00 | 80 | 1011.7 |
| 20260506024550 | 44 | 40 | 1.7 | 5.2 | 0.00 | 0.00 | 0.00 | 80 | 1011.7 |
| 20260506024053 | 44 | 55 | 1.7 | 5.2 | 0.00 | 0.00 | 0.00 | 80 | 1011.8 |
| 20260506023549 | 44 | 77 | 1.7 | 5.2 | 0.00 | 0.00 | 0.00 | 80 | 1011.8 |
| 20260506023049 | 44 | 65 | 1.7 | 6.1 | 0.00 | 0.00 | 0.00 | 80 | 1011.8 |
| 20260506022548 | 45 | 65 | 1.7 | 6.1 | 0.00 | 0.00 | 0.00 | 80 | 1011.8 |
| 20260506022046 | 45 | 48 | 1.7 | 7.0 | 0.00 | 0.00 | 0.00 | 79 | 1011.7 |
| 20260506021555 | 45 | 69 | 2.6 | 7.0 | 0.00 | 0.00 | 0.00 | 80 | 1011.7 |
| 20260506021045 | 45 | 63 | 1.7 | 7.8 | 0.00 | 0.00 | 0.00 | 80 | 1011.7 |
| 20260506020544 | 45 | 19 | 3.5 | 7.8 | 0.00 | 0.00 | 0.00 | 80 | 1011.7 |
| 20260506020044 | 45 | 70 | 0.9 | 7.8 | 0.00 | 0.00 | 0.00 | 80 | 1011.7 |
| 20260506015543 | 45 | 58 | 1.7 | 4.3 | 0.00 | 0.00 | 0.00 | 81 | 1011.8 |
| 20260506015043 | 45 | 66 | 1.7 | 4.3 | 0.00 | 0.00 | 0.00 | 81 | 1011.9 |
| 20260506014542 | 46 | 44 | 1.7 | 6.1 | 0.00 | 0.00 | 0.00 | 81 | 1011.9 |
| 20260506014044 | 46 | 71 | 2.6 | 6.1 | 0.00 | 0.00 | 0.00 | 81 | 1011.8 |
| 20260506013540 | 46 | 54 | 1.7 | 4.3 | 0.00 | 0.00 | 0.00 | 81 | 1011.8 |
| 20260506013044 | 46 | 47 | 1.7 | 7.0 | 0.00 | 0.00 | 0.00 | 81 | 1011.8 |
| 20260506012542 | 46 | 60 | 2.6 | 8.7 | 0.00 | 0.00 | 0.00 | 81 | 1011.8 |
| 20260506012038 | 46 | 59 | 2.6 | 8.7 | 0.00 | 0.00 | 0.00 | 80 | 1011.9 |
| 20260506011545 | 46 | 67 | 2.6 | 8.7 | 0.00 | 0.00 | 0.00 | 80 | 1012.0 |
| 20260506011040 | 46 | 108 | 1.7 | 8.7 | 0.00 | 0.00 | 0.00 | 80 | 1012.0 |
| 20260506010537 | 46 | 38 | 2.6 | 7.8 | 0.00 | 0.00 | 0.00 | 80 | 1012.0 |
| 20260506010047 | 46 | 32 | 2.6 | 7.8 | 0.00 | 0.00 | 0.00 | 81 | 1012.0 |
| 20260506005537 | 46 | 49 | 2.6 | 8.7 | 0.00 | 0.00 | 0.00 | 81 | 1011.9 |
| 20260506005037 | 46 | 64 | 2.6 | 8.7 | 0.00 | 0.00 | 0.00 | 81 | 1011.9 |
| 20260506004535 | 46 | 63 | 2.6 | 7.8 | 0.00 | 0.00 | 0.00 | 81 | 1012.0 |
| 20260506004035 | 46 | 53 | 3.5 | 8.7 | 0.00 | 0.00 | 0.00 | 81 | 1012.0 |
| 20260506003535 | 46 | 55 | 3.5 | 8.7 | 0.00 | 0.00 | 0.00 | 81 | 1012.0 |
| 20260506003034 | 46 | 51 | 2.6 | 7.8 | 0.00 | 0.00 | 0.00 | 81 | 1012.0 |
| 20260506002533 | 46 | 40 | 3.5 | 8.7 | 0.00 | 0.00 | 0.00 | 80 | 1012.0 |
| 20260506002033 | 46 | 76 | 3.5 | 8.7 | 0.00 | 0.00 | 0.00 | 80 | 1012.0 |
| 20260506001532 | 46 | 40 | 2.6 | 5.2 | 0.00 | 0.00 | 0.00 | 80 | 1011.9 |
| 20260506001032 | 46 | 72 | 1.7 | 9.6 | 0.00 | 0.00 | 0.00 | 80 | 1012.0 |
| 20260506000532 | 47 | 66 | 3.5 | 9.6 | 0.00 | 0.00 | 0.00 | 80 | 1012.0 |
| 20260506000031 | 47 | 75 | 2.6 | 7.8 | 0.00 | 0.00 | 0.00 | 80 | 1012.0 |
| 20260505235529 | 47 | 67 | 1.7 | 7.0 | 0.00 | 0.00 | 0.00 | 79 | 1012.0 |
| 20260505235031 | 47 | 48 | 2.6 | 7.0 | 0.00 | 0.00 | 0.00 | 79 | 1012.1 |
| 20260505234541 | 47 | 65 | 1.7 | 5.2 | 0.00 | 0.00 | 0.00 | 78 | 1012.1 |
| 20260505234028 | 47 | 51 | 1.7 | 7.0 | 0.00 | 0.00 | 0.00 | 78 | 1012.1 |
| 20260505233526 | 47 | 71 | 2.6 | 8.7 | 0.00 | 0.00 | 0.00 | 77 | 1012.1 |
| 20260505233029 | 47 | 47 | 2.6 | 8.7 | 0.00 | 0.00 | 0.00 | 77 | 1012.0 |
| 20260505232525 | 47 | 38 | 3.5 | 7.8 | 0.00 | 0.00 | 0.00 | 76 | 1012.1 |
| 20260505232025 | 47 | 65 | 3.5 | 7.8 | 0.00 | 0.00 | 0.00 | 76 | 1012.0 |
| 20260505231528 | 47 | 63 | 1.7 | 8.7 | 0.00 | 0.00 | 0.00 | 76 | 1012.0 |
| 20260505231023 | 47 | 103 | 3.5 | 9.6 | 0.00 | 0.00 | 0.00 | 75 | 1012.0 |
| 20260505230522 | 48 | 22 | 3.5 | 9.6 | 0.00 | 0.00 | 0.00 | 75 | 1012.0 |
| 20260505230024 | 48 | 68 | 2.6 | 9.6 | 0.00 | 0.00 | 0.00 | 75 | 1012.1 |
| 20260505225522 | 48 | 59 | 2.6 | 8.7 | 0.00 | 0.00 | 0.00 | 76 | 1012.0 |
| 20260505225022 | 48 | 51 | 2.6 | 8.7 | 0.00 | 0.00 | 0.00 | 75 | 1012.1 |
| 20260505224527 | 48 | 86 | 2.6 | 8.7 | 0.00 | 0.00 | 0.00 | 76 | 1012.1 |
| 20260505224021 | 48 | 38 | 3.5 | 9.6 | 0.00 | 0.00 | 0.00 | 76 | 1012.0 |
| 20260505223520 | 48 | 38 | 4.3 | 13.0 | 0.00 | 0.00 | 0.00 | 76 | 1012.1 |
| 20260505223019 | 49 | 17 | 5.2 | 13.0 | 0.00 | 0.00 | 0.00 | 77 | 1012.0 |
| 20260505222518 | 49 | 53 | 3.5 | 9.6 | 0.00 | 0.00 | 0.00 | 79 | 1012.0 |
| 20260505222018 | 49 | 51 | 5.2 | 9.6 | 0.00 | 0.00 | 0.00 | 79 | 1012.0 |
| 20260505221518 | 49 | 64 | 3.5 | 9.6 | 0.00 | 0.00 | 0.00 | 79 | 1011.9 |
| 20260505221017 | 49 | 55 | 4.3 | 7.8 | 0.00 | 0.00 | 0.00 | 79 | 1011.9 |
| 20260505220518 | 49 | 40 | 3.5 | 8.7 | 0.00 | 0.00 | 0.00 | 79 | 1011.8 |
| 20260505220018 | 50 | 39 | 2.6 | 8.7 | 0.00 | 0.00 | 0.00 | 79 | 1011.9 |
| 20260505215518 | 50 | 66 | 4.3 | 8.7 | 0.00 | 0.00 | 0.00 | 79 | 1011.9 |
| 20260505215018 | 50 | 67 | 2.6 | 8.7 | 0.00 | 0.00 | 0.00 | 78 | 1011.8 |
| 20260505214518 | 50 | 32 | 4.3 | 11.3 | 0.00 | 0.00 | 0.00 | 78 | 1011.8 |
| 20260505214018 | 50 | 65 | 3.5 | 11.3 | 0.00 | 0.00 | 0.00 | 78 | 1011.8 |
| 20260505213517 | 50 | 42 | 3.5 | 8.7 | 0.00 | 0.00 | 0.00 | 79 | 1011.9 |
| 20260505213019 | 50 | 83 | 2.6 | 7.0 | 0.00 | 0.00 | 0.00 | 79 | 1011.9 |
| 20260505212520 | 51 | 53 | 2.6 | 7.8 | 0.00 | 0.00 | 0.00 | 79 | 1011.8 |
| 20260505212016 | 51 | 74 | 2.6 | 7.8 | 0.00 | 0.00 | 0.00 | 79 | 1011.7 |
| 20260505211533 | 51 | 53 | 2.6 | 9.6 | 0.00 | 0.00 | 0.00 | 78 | 1011.7 |
| 20260505211016 | 51 | 75 | 3.5 | 9.6 | 0.00 | 0.00 | 0.00 | 78 | 1011.7 |
| 20260505210516 | 51 | 57 | 2.6 | 8.7 | 0.00 | 0.00 | 0.00 | 78 | 1011.6 |
| 20260505210016 | 51 | 60 | 3.5 | 8.7 | 0.00 | 0.00 | 0.00 | 78 | 1011.6 |
| 20260505205517 | 51 | 38 | 3.5 | 8.7 | 0.00 | 0.00 | 0.00 | 78 | 1011.5 |
| 20260505205015 | 52 | 103 | 3.5 | 10.4 | 0.00 | 0.00 | 0.00 | 78 | 1011.5 |
| 20260505204515 | 52 | 74 | 4.3 | 10.4 | 0.00 | 0.00 | 0.00 | 77 | 1011.5 |
| 20260505204015 | 52 | 36 | 2.6 | 9.6 | 0.00 | 0.00 | 0.00 | 76 | 1011.4 |
| 20260505203515 | 52 | 52 | 3.5 | 9.6 | 0.00 | 0.00 | 0.00 | 75 | 1011.4 |
| 20260505203015 | 52 | 44 | 4.3 | 9.6 | 0.00 | 0.00 | 0.00 | 72 | 1011.4 |
| 20260505202514 | 52 | 63 | 3.5 | 9.6 | 0.00 | 0.00 | 0.00 | 70 | 1011.2 |
| 20260505202014 | 53 | 53 | 1.7 | 8.7 | 0.00 | 0.00 | 0.00 | 68 | 1011.2 |
| 20260505201514 | 53 | 57 | 3.5 | 7.8 | 0.00 | 0.00 | 0.00 | 68 | 1011.2 |
| 20260505201018 | 53 | 56 | 0.9 | 4.3 | 0.00 | 0.00 | 0.00 | 68 | 1011.1 |
| 20260505200514 | 53 | 40 | 0.9 | 3.5 | 0.00 | 0.00 | 0.00 | 68 | 1011.0 |
| 20260505200014 | 53 | 55 | 0.0 | 3.5 | 0.00 | 0.00 | 0.00 | 67 | 1011.0 |
| 20260505195513 | 54 | 63 | 0.9 | 7.0 | 0.00 | 0.00 | 0.00 | 67 | 1010.9 |
| 20260505195013 | 54 | 65 | 0.9 | 7.0 | 0.00 | 0.00 | 0.00 | 67 | 1010.9 |
| 20260505194514 | 54 | 44 | 1.7 | 7.0 | 0.00 | 0.00 | 0.00 | 66 | 1010.8 |
| 20260505194016 | 54 | 42 | 2.6 | 6.1 | 0.00 | 0.00 | 0.00 | 65 | 1010.8 |
| 20260505193513 | 54 | 52 | 1.7 | 6.1 | 0.00 | 0.00 | 0.00 | 65 | 1010.7 |
| 20260505193014 | 54 | 75 | 1.7 | 6.1 | 0.00 | 0.00 | 0.00 | 64 | 1010.7 |
| 20260505192512 | 54 | 44 | 1.7 | 5.2 | 0.00 | 0.00 | 0.00 | 64 | 1010.7 |
| 20260505192012 | 54 | 64 | 0.9 | 5.2 | 0.00 | 0.00 | 0.00 | 64 | 1010.6 |
| 20260505191512 | 54 | 59 | 1.7 | 7.0 | 0.00 | 0.00 | 0.00 | 64 | 1010.6 |
| 20260505191011 | 54 | 78 | 1.7 | 7.0 | 0.00 | 0.00 | 0.00 | 64 | 1010.6 |
| 20260505190511 | 54 | 55 | 1.7 | 6.1 | 0.00 | 0.00 | 0.00 | 64 | 1010.5 |
| 20260505190013 | 55 | 53 | 1.7 | 6.1 | 0.00 | 0.00 | 0.00 | 64 | 1010.6 |
| 20260505185511 | 55 | 54 | 1.7 | 5.2 | 0.00 | 0.00 | 0.00 | 64 | 1010.5 |
| 20260505185011 | 55 | 74 | 1.7 | 5.2 | 0.00 | 0.00 | 0.00 | 64 | 1010.5 |
| 20260505184522 | 55 | 74 | 1.7 | 4.3 | 0.00 | 0.00 | 0.00 | 64 | 1010.5 |
| 20260505184014 | 55 | 11 | 0.9 | 5.2 | 0.00 | 0.00 | 0.00 | 64 | 1010.4 |
| 20260505183511 | 55 | 75 | 1.7 | 7.8 | 0.00 | 0.00 | 0.00 | 64 | 1010.4 |
| 20260505183010 | 55 | 66 | 1.7 | 7.8 | 0.00 | 0.00 | 0.00 | 63 | 1010.4 |
| 20260505182510 | 55 | 49 | 2.6 | 7.8 | 0.00 | 0.00 | 0.00 | 63 | 1010.4 |
| 20260505182010 | 55 | 40 | 1.7 | 7.8 | 0.00 | 0.00 | 0.00 | 63 | 1010.4 |
| 20260505181510 | 55 | 86 | 3.5 | 8.7 | 0.00 | 0.00 | 0.00 | 63 | 1010.4 |
| 20260505181009 | 56 | 67 | 2.6 | 8.7 | 0.00 | 0.00 | 0.00 | 63 | 1010.4 |
| 20260505180509 | 56 | 48 | 2.6 | 7.0 | 0.00 | 0.00 | 0.00 | 63 | 1010.4 |
| 20260505180009 | 56 | 74 | 2.6 | 8.7 | 0.00 | 0.00 | 0.00 | 64 | 1010.4 |
| 20260505175508 | 56 | 65 | 1.7 | 9.6 | 0.00 | 0.00 | 0.00 | 64 | 1010.4 |
| 20260505175008 | 56 | 56 | 4.3 | 9.6 | 0.00 | 0.00 | 0.00 | 63 | 1010.3 |
| 20260505174508 | 56 | 30 | 3.5 | 8.7 | 0.00 | 0.00 | 0.00 | 63 | 1010.4 |
| 20260505174008 | 56 | 60 | 3.5 | 8.7 | 0.00 | 0.00 | 0.00 | 63 | 1010.4 |
| 20260505173508 | 56 | 40 | 2.6 | 7.8 | 0.00 | 0.00 | 0.00 | 62 | 1010.5 |
| 20260505173007 | 57 | 83 | 3.5 | 7.8 | 0.00 | 0.00 | 0.00 | 62 | 1010.5 |
| 20260505172507 | 57 | 60 | 1.7 | 7.8 | 0.00 | 0.00 | 0.00 | 63 | 1010.5 |
| 20260505172007 | 56 | 71 | 1.7 | 7.0 | 0.00 | 0.00 | 0.00 | 63 | 1010.5 |
| 20260505171508 | 56 | 63 | 0.9 | 8.7 | 0.00 | 0.00 | 0.00 | 63 | 1010.5 |
| 20260505171007 | 56 | 66 | 1.7 | 8.7 | 0.00 | 0.00 | 0.00 | 63 | 1010.5 |
| 20260505170506 | 56 | 39 | 0.9 | 8.7 | 0.00 | 0.00 | 0.00 | 63 | 1010.5 |
| 20260505170011 | 56 | 68 | 2.6 | 8.7 | 0.00 | 0.00 | 0.00 | 63 | 1010.6 |
| 20260505165506 | 56 | 60 | 1.7 | 5.2 | 0.00 | 0.00 | 0.00 | 64 | 1010.5 |
| 20260505165007 | 56 | 63 | 3.5 | 7.0 | 0.00 | 0.00 | 0.00 | 63 | 1010.6 |
| 20260505164507 | 56 | 22 | 1.7 | 7.0 | 0.00 | 0.00 | 0.00 | 63 | 1010.6 |
| 20260505164006 | 57 | 61 | 3.5 | 7.8 | 0.00 | 0.00 | 0.00 | 62 | 1010.6 |
| 20260505163506 | 57 | 59 | 1.7 | 8.7 | 0.00 | 0.00 | 0.00 | 62 | 1010.5 |
| 20260505163006 | 57 | 54 | 2.6 | 8.7 | 0.00 | 0.00 | 0.00 | 63 | 1010.5 |
| 20260505162508 | 57 | 39 | 3.5 | 8.7 | 0.00 | 0.00 | 0.00 | 62 | 1010.5 |
| 20260505162004 | 58 | 38 | 1.7 | 9.6 | 0.00 | 0.00 | 0.00 | 62 | 1010.5 |
| 20260505161504 | 58 | 51 | 3.5 | 9.6 | 0.00 | 0.00 | 0.00 | 62 | 1010.4 |
| 20260505161004 | 58 | 82 | 4.3 | 8.7 | 0.00 | 0.00 | 0.00 | 62 | 1010.4 |
| 20260505160506 | 58 | 57 | 1.7 | 8.7 | 0.00 | 0.00 | 0.00 | 63 | 1010.5 |
| 20260505153100 | 57 | 267 | 1.7 | 7.0 | 0.00 | 0.00 | 0.00 | 62 | 1010.6 |
| 20260505152604 | 57 | 158 | 0.9 | 5.2 | 0.00 | 0.00 | 0.00 | 63 | 1010.7 |
| 20260505152059 | 57 | 288 | 0.9 | 7.8 | 0.00 | 0.00 | 0.00 | 64 | 1010.7 |
| 20260505151559 | 57 | 92 | 1.7 | 11.3 | 0.00 | 0.00 | 0.00 | 63 | 1010.6 |
| 20260505151059 | 57 | 11 | 0.9 | 7.8 | 0.00 | 0.00 | 0.00 | 63 | 1010.7 |
| 20260505150559 | 57 | 58 | 3.5 | 7.0 | 0.00 | 0.00 | 0.00 | 63 | 1010.7 |
| 20260505140555 | 56 | 61 | 3.5 | 8.7 | 0.00 | 0.00 | 0.00 | 64 | 1010.9 |
| 20260505140109 | 56 | 84 | 0.9 | 5.2 | 0.00 | 0.00 | 0.00 | 64 | 1010.9 |
| 20260505124554 | 59 | 95 | 0.0 | 6.1 | 0.00 | 0.00 | 0.00 | 60 | 1010.9 |
| 20260505124052 | 59 | 48 | 0.9 | 6.1 | 0.00 | 0.00 | 0.00 | 60 | 1010.9 |
| 20260505123552 | 59 | 30 | 0.0 | 7.8 | 0.00 | 0.00 | 0.00 | 60 | 1010.8 |
| 20260505123054 | 59 | 55 | 1.7 | 7.8 | 0.00 | 0.00 | 0.00 | 60 | 1010.8 |
| 20260505122551 | 59 | 41 | 0.0 | 4.3 | 0.00 | 0.00 | 0.00 | 60 | 1010.8 |
| 20260505122050 | 58 | 195 | 0.9 | 8.7 | 0.00 | 0.00 | 0.00 | 60 | 1010.8 |
| 20260505121551 | 59 | 58 | 0.9 | 8.7 | 0.00 | 0.00 | 0.00 | 59 | 1010.9 |
| 20260505121050 | 59 | 290 | 0.0 | 2.6 | 0.00 | 0.00 | 0.00 | 61 | 1010.9 |
| 20260505120548 | 59 | 244 | 0.0 | 7.8 | 0.00 | 0.00 | 0.00 | 60 | 1010.9 |
| 20260505120100 | 59 | 49 | 0.9 | 7.8 | 0.00 | 0.00 | 0.00 | 62 | 1011.0 |
| 20260505115547 | 58 | 44 | 0.0 | 7.0 | 0.00 | 0.00 | 0.00 | 64 | 1010.9 |
| 20260505115048 | 58 | 48 | 0.0 | 3.5 | 0.00 | 0.00 | 0.00 | 62 | 1011.0 |
| 20260505114547 | 58 | 325 | 0.0 | 4.3 | 0.00 | 0.00 | 0.00 | 62 | 1010.9 |
| 20260505114046 | 58 | 265 | 0.0 | 5.2 | 0.00 | 0.00 | 0.00 | 63 | 1011.0 |
| 20260505113547 | 58 | 17 | 1.7 | 5.2 | 0.00 | 0.00 | 0.00 | 64 | 1011.0 |
| 20260505113049 | 58 | 81 | 0.0 | 4.3 | 0.00 | 0.00 | 0.00 | 63 | 1011.1 |
| 20260505112647 | 58 | 62 | 0.0 | 4.3 | 0.00 | 0.00 | 0.00 | 63 | 1011.1 |
| 20260505112044 | 58 | 204 | 1.7 | 7.8 | 0.00 | 0.00 | 0.00 | 62 | 1011.2 |
| 20260505111547 | 59 | 57 | 1.7 | 7.8 | 0.00 | 0.00 | 0.00 | 62 | 1011.1 |
| 20260505111045 | 58 | 178 | 0.0 | 4.3 | 0.00 | 0.00 | 0.00 | 62 | 1011.2 |
| 20260505110541 | 58 | 303 | 0.0 | 6.1 | 0.00 | 0.00 | 0.00 | 62 | 1011.1 |
| 20260505102033 | 56 | 267 | 0.0 | 8.7 | 0.00 | 0.00 | 0.00 | 64 | 1011.6 |
| 20260505101534 | 55 | 39 | 0.9 | 8.7 | 0.00 | 0.00 | 0.00 | 66 | 1011.6 |
| 20260505101029 | 55 | 51 | 0.9 | 7.0 | 0.00 | 0.00 | 0.00 | 66 | 1011.7 |
| 20260505100529 | 55 | 13 | 0.0 | 3.5 | 0.00 | 0.00 | 0.00 | 69 | 1011.6 |
| 20260505100027 | 54 | 321 | 0.9 | 5.2 | 0.00 | 0.00 | 0.00 | 71 | 1011.7 |
| 20260505095524 | 54 | 63 | 0.9 | 5.2 | 0.00 | 0.00 | 0.00 | 70 | 1011.7 |
| 20260505095023 | 54 | 248 | 0.0 | 7.8 | 0.00 | 0.00 | 0.00 | 70 | 1011.7 |
| 20260505094526 | 54 | 335 | 1.7 | 7.8 | 0.00 | 0.00 | 0.00 | 71 | 1011.7 |
| 20260505094020 | 53 | 47 | 0.9 | 7.8 | 0.00 | 0.00 | 0.00 | 73 | 1011.7 |
| 20260505093519 | 53 | 55 | 1.7 | 7.8 | 0.00 | 0.00 | 0.00 | 75 | 1011.8 |
| 20260505093018 | 53 | 75 | 0.0 | 5.2 | 0.00 | 0.00 | 0.00 | 76 | 1011.8 |
| 20260505092518 | 53 | 171 | 0.0 | 5.2 | 0.00 | 0.00 | 0.00 | 75 | 1011.8 |
| 20260505092018 | 53 | 315 | 0.0 | 2.6 | 0.00 | 0.00 | 0.00 | 75 | 1011.7 |
| 20260505091517 | 53 | 209 | 0.0 | 3.5 | 0.00 | 0.00 | 0.00 | 76 | 1011.8 |
| 20260505091016 | 53 | 17 | 0.0 | 4.3 | 0.00 | 0.00 | 0.00 | 77 | 1011.8 |
| 20260505090515 | 52 | 333 | 0.9 | 4.3 | 0.00 | 0.00 | 0.00 | 77 | 1011.9 |
| 20260505090017 | 52 | 355 | 0.9 | 7.0 | 0.00 | 0.00 | 0.00 | 78 | 1011.9 |
| 20260505085513 | 52 | 38 | 0.0 | 7.0 | 0.00 | 0.00 | 0.00 | 77 | 1012.0 |
| 20260505085013 | 52 | 44 | 1.7 | 4.3 | 0.00 | 0.00 | 0.00 | 76 | 1012.0 |
| 20260505084525 | 52 | 101 | 0.0 | 7.8 | 0.00 | 0.00 | 0.00 | 77 | 1012.1 |
| 20260505084012 | 52 | 327 | 0.9 | 7.8 | 0.00 | 0.00 | 0.00 | 77 | 1012.0 |
| 20260505083511 | 52 | 93 | 0.9 | 8.7 | 0.00 | 0.00 | 0.00 | 76 | 1012.0 |
| 20260505083012 | 52 | 84 | 1.7 | 5.2 | 0.00 | 0.00 | 0.00 | 75 | 1012.0 |
| 20260505082511 | 52 | 157 | 0.9 | 8.7 | 0.00 | 0.00 | 0.00 | 76 | 1012.0 |
| 20260505082010 | 52 | 80 | 2.6 | 8.7 | 0.00 | 0.00 | 0.00 | 78 | 1011.9 |
| 20260505081509 | 51 | 348 | 0.9 | 8.7 | 0.00 | 0.00 | 0.00 | 79 | 1011.9 |
| 20260505081008 | 51 | 9 | 2.6 | 8.7 | 0.00 | 0.00 | 0.00 | 81 | 1012.0 |
| 20260505080510 | 50 | 53 | 0.9 | 7.8 | 0.00 | 0.00 | 0.00 | 82 | 1012.0 |
| 20260505080017 | 50 | 67 | 2.6 | 6.1 | 0.00 | 0.00 | 0.00 | 82 | 1012.1 |
| 20260505075504 | 50 | 67 | 0.9 | 5.2 | 0.00 | 0.00 | 0.00 | 82 | 1012.0 |
| 20260505075004 | 50 | 43 | 1.7 | 5.2 | 0.00 | 0.00 | 0.00 | 83 | 1012.0 |
| 20260505074504 | 49 | 344 | 0.0 | 6.1 | 0.00 | 0.00 | 0.00 | 83 | 1012.1 |
| 20260505074003 | 49 | 259 | 1.7 | 6.1 | 0.00 | 0.00 | 0.00 | 82 | 1012.1 |
| 20260505073503 | 50 | 49 | 1.7 | 7.0 | 0.00 | 0.00 | 0.00 | 82 | 1012.1 |
| 20260505073002 | 49 | 314 | 1.7 | 6.1 | 0.00 | 0.00 | 0.00 | 83 | 1012.1 |
| 20260505072502 | 49 | 31 | 2.6 | 7.0 | 0.00 | 0.00 | 0.00 | 83 | 1012.1 |
| 20260505072102 | 49 | 65 | 2.6 | 7.8 | 0.00 | 0.00 | 0.00 | 83 | 1012.2 |
| 20260505071601 | 48 | 94 | 1.7 | 8.7 | 0.00 | 0.00 | 0.00 | 84 | 1012.1 |
| 20260505071058 | 48 | 61 | 1.7 | 8.7 | 0.00 | 0.00 | 0.00 | 84 | 1012.1 |
| 20260505070559 | 48 | 77 | 1.7 | 7.8 | 0.00 | 0.00 | 0.00 | 84 | 1012.1 |
| 20260505070104 | 48 | 86 | 2.6 | 7.8 | 0.00 | 0.00 | 0.00 | 84 | 1012.2 |
| 20260505065553 | 48 | 223 | 1.7 | 6.1 | 0.00 | 0.00 | 0.00 | 85 | 1012.1 |
| 20260505065051 | 48 | 144 | 0.9 | 6.1 | 0.00 | 0.00 | 0.00 | 85 | 1012.1 |
| 20260505064556 | 47 | 263 | 0.0 | 4.3 | 0.00 | 0.00 | 0.00 | 86 | 1012.1 |
| 20260505064049 | 47 | 55 | 0.9 | 6.1 | 0.00 | 0.00 | 0.00 | 86 | 1012.1 |
| 20260505063550 | 47 | 35 | 1.7 | 7.8 | 0.00 | 0.00 | 0.00 | 86 | 1012.1 |
| 20260505063048 | 47 | 47 | 1.7 | 6.1 | 0.00 | 0.00 | 0.00 | 87 | 1012.1 |
| 20260505062548 | 47 | 56 | 0.9 | 6.1 | 0.00 | 0.00 | 0.00 | 87 | 1012.1 |
| 20260505062047 | 46 | 117 | 0.9 | 5.2 | 0.00 | 0.00 | 0.00 | 87 | 1012.1 |
| 20260505061610 | 46 | 300 | 0.9 | 2.6 | 0.00 | 0.00 | 0.00 | 87 | 1012.1 |
| 20260505061047 | 46 | 294 | 0.0 | 2.6 | 0.00 | 0.00 | 0.00 | 87 | 1012.2 |
| 20260505060547 | 46 | 346 | 0.0 | 3.5 | 0.00 | 0.00 | 0.00 | 87 | 1012.3 |
| 20260505060053 | 46 | 315 | 0.0 | 3.5 | 0.00 | 0.00 | 0.00 | 88 | 1012.3 |
| 20260505055546 | 46 | 75 | 0.0 | 2.6 | 0.00 | 0.00 | 0.00 | 88 | 1012.2 |
| 20260505055046 | 46 | 74 | 0.9 | 2.6 | 0.00 | 0.00 | 0.00 | 88 | 1012.2 |
| 20260505054548 | 46 | 182 | 0.0 | 2.6 | 0.00 | 0.00 | 0.00 | 89 | 1012.2 |
| 20260505054045 | 46 | 207 | 0.0 | 2.6 | 0.00 | 0.00 | 0.00 | 90 | 1012.1 |
| 20260505053545 | 45 | 70 | 0.0 | 1.7 | 0.00 | 0.00 | 0.00 | 90 | 1012.2 |
| 20260505053043 | 45 | 59 | 0.0 | 1.7 | 0.00 | 0.00 | 0.00 | 91 | 1012.1 |
| 20260505052546 | 45 | 108 | 0.0 | 0.0 | 0.00 | 0.00 | 0.00 | 91 | 1012.1 |
| 20260505052042 | 45 | 59 | 0.0 | 0.0 | 0.00 | 0.00 | 0.00 | 91 | 1012.2 |
| 20260505051541 | 45 | 90 | 0.0 | 0.0 | 0.00 | 0.00 | 0.00 | 91 | 1012.2 |
| 20260505051041 | 45 | 302 | 0.0 | 0.0 | 0.00 | 0.00 | 0.00 | 91 | 1012.2 |
| 20260505050540 | 45 | 233 | 0.0 | 0.0 | 0.00 | 0.00 | 0.00 | 92 | 1012.2 |
| 20260505041535 | 46 | 321 | 0.0 | 0.0 | 0.00 | 0.00 | 0.00 | 93 | 1012.0 |
| 20260505041036 | 46 | 355 | 0.0 | 0.0 | 0.00 | 0.00 | 0.00 | 93 | 1011.9 |
| 20260505040534 | 46 | 266 | 0.0 | 0.0 | 0.00 | 0.00 | 0.00 | 93 | 1011.9 |
| 20260505040043 | 46 | 266 | 0.0 | 0.0 | 0.00 | 0.00 | 0.00 | 93 | 1011.9 |
| 20260505035534 | 46 | 266 | 0.0 | 0.0 | 0.00 | 0.00 | 0.00 | 93 | 1011.8 |
| 20260505035035 | 46 | 266 | 0.0 | 0.0 | 0.00 | 0.00 | 0.00 | 93 | 1011.9 |
| 20260505034539 | 46 | 266 | 0.0 | 0.0 | 0.00 | 0.00 | 0.00 | 93 | 1012.0 |
| 20260505034033 | 46 | 266 | 0.0 | 0.0 | 0.00 | 0.00 | 0.00 | 93 | 1012.0 |
| 20260505033533 | 46 | 266 | 0.0 | 0.0 | 0.00 | 0.00 | 0.00 | 93 | 1012.1 |
| 20260505033033 | 46 | 266 | 0.0 | 0.0 | 0.00 | 0.00 | 0.00 | 93 | 1012.0 |
| 20260505032534 | 46 | 266 | 0.0 | 0.0 | 0.00 | 0.00 | 0.00 | 93 | 1012.0 |
| 20260505032036 | 47 | 267 | 0.0 | 0.0 | 0.00 | 0.00 | 0.00 | 93 | 1012.0 |